Year,Month,Day,Hour,Minute,Value (Times are PST for windgust in km/hr)
2006,02,01,00,00,24.20
2006,02,01,00,01,25.70
2006,02,01,00,02,20.90
2006,02,01,00,03,22.50
2006,02,01,00,04,8.10
2006,02,01,00,05,25.70
2006,02,01,00,06,22.50
2006,02,01,00,07,22.50
2006,02,01,00,08,24.20
2006,02,01,00,09,19.30
2006,02,01,00,10,27.40
2006,02,01,00,11,25.70
2006,02,01,00,12,24.20
2006,02,01,00,13,19.30
2006,02,01,00,14,25.70
2006,02,01,00,15,20.90
2006,02,01,00,16,20.90
2006,02,01,00,17,33.80
2006,02,01,00,18,25.70
2006,02,01,00,19,17.70
2006,02,01,00,20,30.60
2006,02,01,00,21,27.40
2006,02,01,00,22,19.30
2006,02,01,00,23,35.40
2006,02,01,00,24,35.40
2006,02,01,00,25,24.20
2006,02,01,00,26,22.50
2006,02,01,00,27,29.00
2006,02,01,00,28,22.50
2006,02,01,00,29,24.20
2006,02,01,00,30,38.60
2006,02,01,00,31,25.70
2006,02,01,00,32,29.00
2006,02,01,00,33,29.00
2006,02,01,00,34,37.00
2006,02,01,00,35,30.60
2006,02,01,00,36,35.40
2006,02,01,00,37,40.20
2006,02,01,00,38,19.30
2006,02,01,00,39,32.20
2006,02,01,00,40,33.80
2006,02,01,00,41,24.20
2006,02,01,00,42,24.20
2006,02,01,00,43,38.60
2006,02,01,00,44,38.60
2006,02,01,00,45,27.40
2006,02,01,00,46,33.80
2006,02,01,00,47,22.50
2006,02,01,00,48,19.30
2006,02,01,00,49,37.00
2006,02,01,00,50,30.60
2006,02,01,00,51,9.60
2006,02,01,00,52,19.30
2006,02,01,00,53,25.70
2006,02,01,00,54,33.80
2006,02,01,00,55,32.20
2006,02,01,00,56,25.70
2006,02,01,00,57,30.60
2006,02,01,00,58,32.20
2006,02,01,00,59,20.90
2006,02,01,01,00,30.60
2006,02,01,01,01,40.20
2006,02,01,01,02,24.20
2006,02,01,01,03,29.00
2006,02,01,01,04,35.40
2006,02,01,01,05,30.60
2006,02,01,01,06,35.40
2006,02,01,01,07,29.00
2006,02,01,01,08,27.40
2006,02,01,01,09,38.60
2006,02,01,01,10,27.40
2006,02,01,01,11,17.70
2006,02,01,01,12,30.60
2006,02,01,01,13,25.70
2006,02,01,01,14,22.50
2006,02,01,01,15,20.90
2006,02,01,01,16,32.20
2006,02,01,01,17,33.80
2006,02,01,01,18,29.00
2006,02,01,01,19,35.40
2006,02,01,01,20,38.60
2006,02,01,01,21,38.60
2006,02,01,01,22,19.30
2006,02,01,01,23,22.50
2006,02,01,01,24,29.00
2006,02,01,01,25,30.60
2006,02,01,01,26,19.30
2006,02,01,01,27,17.70
2006,02,01,01,28,19.30
2006,02,01,01,29,16.10
2006,02,01,01,30,8.10
2006,02,01,01,31,32.20
2006,02,01,01,32,25.70
2006,02,01,01,33,22.50
2006,02,01,01,34,37.00
2006,02,01,01,35,19.30
2006,02,01,01,36,29.00
2006,02,01,01,37,22.50
2006,02,01,01,38,16.10
2006,02,01,01,39,25.70
2006,02,01,01,40,27.40
2006,02,01,01,41,22.50
2006,02,01,01,42,35.40
2006,02,01,01,43,22.50
2006,02,01,01,44,11.30
2006,02,01,01,45,30.60
2006,02,01,01,46,35.40
2006,02,01,01,47,25.70
2006,02,01,01,48,25.70
2006,02,01,01,49,41.80
2006,02,01,01,50,33.80
2006,02,01,01,51,30.60
2006,02,01,01,52,33.80
2006,02,01,01,53,24.20
2006,02,01,01,54,20.90
2006,02,01,01,55,24.20
2006,02,01,01,56,20.90
2006,02,01,01,57,20.90
2006,02,01,01,58,32.20
2006,02,01,01,59,25.70
2006,02,01,02,00,17.70
2006,02,01,02,01,32.20
2006,02,01,02,02,40.20
2006,02,01,02,03,29.00
2006,02,01,02,04,22.50
2006,02,01,02,05,32.20
2006,02,01,02,06,27.40
2006,02,01,02,07,35.40
2006,02,01,02,08,41.80
2006,02,01,02,09,29.00
2006,02,01,02,10,32.20
2006,02,01,02,11,25.70
2006,02,01,02,12,33.80
2006,02,01,02,13,38.60
2006,02,01,02,14,27.40
2006,02,01,02,15,29.00
2006,02,01,02,16,35.40
2006,02,01,02,17,38.60
2006,02,01,02,18,32.20
2006,02,01,02,19,41.80
2006,02,01,02,20,29.00
2006,02,01,02,21,30.60
2006,02,01,02,22,53.10
2006,02,01,02,23,29.00
2006,02,01,02,24,25.70
2006,02,01,02,25,41.80
2006,02,01,02,26,25.70
2006,02,01,02,27,30.60
2006,02,01,02,28,22.50
2006,02,01,02,29,37.00
2006,02,01,02,30,27.40
2006,02,01,02,31,25.70
2006,02,01,02,32,48.30
2006,02,01,02,33,32.20
2006,02,01,02,34,22.50
2006,02,01,02,35,40.20
2006,02,01,02,36,16.10
2006,02,01,02,37,41.80
2006,02,01,02,38,29.00
2006,02,01,02,39,20.90
2006,02,01,02,40,24.20
2006,02,01,02,41,45.10
2006,02,01,02,42,43.50
2006,02,01,02,43,25.70
2006,02,01,02,44,27.40
2006,02,01,02,45,16.10
2006,02,01,02,46,24.20
2006,02,01,02,47,17.70
2006,02,01,02,48,24.20
2006,02,01,02,49,25.70
2006,02,01,02,50,11.30
2006,02,01,02,51,24.20
2006,02,01,02,52,22.50
2006,02,01,02,53,29.00
2006,02,01,02,54,29.00
2006,02,01,02,55,32.20
2006,02,01,02,56,32.20
2006,02,01,02,57,37.00
2006,02,01,02,58,14.50
2006,02,01,02,59,27.40
2006,02,01,03,00,19.30
2006,02,01,03,01,25.70
2006,02,01,03,02,32.20
2006,02,01,03,03,30.60
2006,02,01,03,04,11.30
2006,02,01,03,05,25.70
2006,02,01,03,06,22.50
2006,02,01,03,07,17.70
2006,02,01,03,08,30.60
2006,02,01,03,09,17.70
2006,02,01,03,10,14.50
2006,02,01,03,11,4.80
2006,02,01,03,12,20.90
2006,02,01,03,13,20.90
2006,02,01,03,14,16.10
2006,02,01,03,15,16.10
2006,02,01,03,16,22.50
2006,02,01,03,17,16.10
2006,02,01,03,18,11.30
2006,02,01,03,19,33.80
2006,02,01,03,20,27.40
2006,02,01,03,21,22.50
2006,02,01,03,22,16.10
2006,02,01,03,23,11.30
2006,02,01,03,24,6.40
2006,02,01,03,25,6.40
2006,02,01,03,26,4.80
2006,02,01,03,27,14.50
2006,02,01,03,28,12.90
2006,02,01,03,29,22.50
2006,02,01,03,30,37.00
2006,02,01,03,31,24.20
2006,02,01,03,32,19.30
2006,02,01,03,33,25.70
2006,02,01,03,34,22.50
2006,02,01,03,35,19.30
2006,02,01,03,36,17.70
2006,02,01,03,37,11.30
2006,02,01,03,38,9.60
2006,02,01,03,39,9.60
2006,02,01,03,40,20.90
2006,02,01,03,41,20.90
2006,02,01,03,42,16.10
2006,02,01,03,43,35.40
2006,02,01,03,44,29.00
2006,02,01,03,45,17.70
2006,02,01,03,46,33.80
2006,02,01,03,47,25.70
2006,02,01,03,48,24.20
2006,02,01,03,49,12.90
2006,02,01,03,50,9.60
2006,02,01,03,51,9.60
2006,02,01,03,52,29.00
2006,02,01,03,53,25.70
2006,02,01,03,54,27.40
2006,02,01,03,55,16.10
2006,02,01,03,56,16.10
2006,02,01,03,57,19.30
2006,02,01,03,58,16.10
2006,02,01,03,59,11.30
2006,02,01,04,00,11.30
2006,02,01,04,01,8.10
2006,02,01,04,02,9.60
2006,02,01,04,03,11.30
2006,02,01,04,04,16.10
2006,02,01,04,05,27.40
2006,02,01,04,06,11.30
2006,02,01,04,07,6.40
2006,02,01,04,08,17.70
2006,02,01,04,09,37.00
2006,02,01,04,10,27.40
2006,02,01,04,11,33.80
2006,02,01,04,12,33.80
2006,02,01,04,13,22.50
2006,02,01,04,14,17.70
2006,02,01,04,15,27.40
2006,02,01,04,16,35.40
2006,02,01,04,17,14.50
2006,02,01,04,18,16.10
2006,02,01,04,19,29.00
2006,02,01,04,20,14.50
2006,02,01,04,21,17.70
2006,02,01,04,22,22.50
2006,02,01,04,23,22.50
2006,02,01,04,24,14.50
2006,02,01,04,25,14.50
2006,02,01,04,26,19.30
2006,02,01,04,27,25.70
2006,02,01,04,28,20.90
2006,02,01,04,29,24.20
2006,02,01,04,30,32.20
2006,02,01,04,31,27.40
2006,02,01,04,32,24.20
2006,02,01,04,33,24.20
2006,02,01,04,34,24.20
2006,02,01,04,35,30.60
2006,02,01,04,36,32.20
2006,02,01,04,37,41.80
2006,02,01,04,38,45.10
2006,02,01,04,39,33.80
2006,02,01,04,40,27.40
2006,02,01,04,41,41.80
2006,02,01,04,42,37.00
2006,02,01,04,43,37.00
2006,02,01,04,44,37.00
2006,02,01,04,45,27.40
2006,02,01,04,46,27.40
2006,02,01,04,47,33.80
2006,02,01,04,48,38.60
2006,02,01,04,49,33.80
2006,02,01,04,50,35.40
2006,02,01,04,51,27.40
2006,02,01,04,52,41.80
2006,02,01,04,53,41.80
2006,02,01,04,54,35.40
2006,02,01,04,55,37.00
2006,02,01,04,56,25.70
2006,02,01,04,57,32.20
2006,02,01,04,58,37.00
2006,02,01,04,59,32.20
2006,02,01,05,00,32.20
2006,02,01,05,01,24.20
2006,02,01,05,02,27.40
2006,02,01,05,03,37.00
2006,02,01,05,04,32.20
2006,02,01,05,05,35.40
2006,02,01,05,06,38.60
2006,02,01,05,07,35.40
2006,02,01,05,08,32.20
2006,02,01,05,09,22.50
2006,02,01,05,10,24.20
2006,02,01,05,11,41.80
2006,02,01,05,12,32.20
2006,02,01,05,13,35.40
2006,02,01,05,14,51.50
2006,02,01,05,15,45.10
2006,02,01,05,16,35.40
2006,02,01,05,17,25.70
2006,02,01,05,18,30.60
2006,02,01,05,19,35.40
2006,02,01,05,20,33.80
2006,02,01,05,21,32.20
2006,02,01,05,22,38.60
2006,02,01,05,23,45.10
2006,02,01,05,24,25.70
2006,02,01,05,25,25.70
2006,02,01,05,26,37.00
2006,02,01,05,27,53.10
2006,02,01,05,28,80.50
2006,02,01,05,29,46.70
2006,02,01,05,30,62.70
2006,02,01,05,31,43.50
2006,02,01,05,32,45.10
2006,02,01,05,33,43.50
2006,02,01,05,34,48.30
2006,02,01,05,35,33.80
2006,02,01,05,36,35.40
2006,02,01,05,37,54.70
2006,02,01,05,38,49.90
2006,02,01,05,39,40.20
2006,02,01,05,40,46.70
2006,02,01,05,41,46.70
2006,02,01,05,42,27.40
2006,02,01,05,43,33.80
2006,02,01,05,44,40.20
2006,02,01,05,45,56.30
2006,02,01,05,46,35.40
2006,02,01,05,47,43.50
2006,02,01,05,48,35.40
2006,02,01,05,49,46.70
2006,02,01,05,50,43.50
2006,02,01,05,51,40.20
2006,02,01,05,52,49.90
2006,02,01,05,53,46.70
2006,02,01,05,54,27.40
2006,02,01,05,55,37.00
2006,02,01,05,56,32.20
2006,02,01,05,57,37.00
2006,02,01,05,58,41.80
2006,02,01,05,59,53.10
2006,02,01,06,00,38.60
2006,02,01,06,01,38.60
2006,02,01,06,02,37.00
2006,02,01,06,03,40.20
2006,02,01,06,04,38.60
2006,02,01,06,05,41.80
2006,02,01,06,06,40.20
2006,02,01,06,07,30.60
2006,02,01,06,08,35.40
2006,02,01,06,09,41.80
2006,02,01,06,10,48.30
2006,02,01,06,11,37.00
2006,02,01,06,12,37.00
2006,02,01,06,13,45.10
2006,02,01,06,14,30.60
2006,02,01,06,15,48.30
2006,02,01,06,16,41.80
2006,02,01,06,17,38.60
2006,02,01,06,18,40.20
2006,02,01,06,19,37.00
2006,02,01,06,20,41.80
2006,02,01,06,21,46.70
2006,02,01,06,22,40.20
2006,02,01,06,23,32.20
2006,02,01,06,24,35.40
2006,02,01,06,25,41.80
2006,02,01,06,26,41.80
2006,02,01,06,27,41.80
2006,02,01,06,28,35.40
2006,02,01,06,29,33.80
2006,02,01,06,30,41.80
2006,02,01,06,31,41.80
2006,02,01,06,32,51.50
2006,02,01,06,33,43.50
2006,02,01,06,34,43.50
2006,02,01,06,35,33.80
2006,02,01,06,36,29.00
2006,02,01,06,37,46.70
2006,02,01,06,38,53.10
2006,02,01,06,39,30.60
2006,02,01,06,40,27.40
2006,02,01,06,41,48.30
2006,02,01,06,42,45.10
2006,02,01,06,43,27.40
2006,02,01,06,44,38.60
2006,02,01,06,45,37.00
2006,02,01,06,46,32.20
2006,02,01,06,47,33.80
2006,02,01,06,48,35.40
2006,02,01,06,49,32.20
2006,02,01,06,50,45.10
2006,02,01,06,51,32.20
2006,02,01,06,52,45.10
2006,02,01,06,53,33.80
2006,02,01,06,54,43.50
2006,02,01,06,55,40.20
2006,02,01,06,56,38.60
2006,02,01,06,57,46.70
2006,02,01,06,58,35.40
2006,02,01,06,59,32.20
2006,02,01,07,00,41.80
2006,02,01,07,01,30.60
2006,02,01,07,02,45.10
2006,02,01,07,03,32.20
2006,02,01,07,04,37.00
2006,02,01,07,05,35.40
2006,02,01,07,06,29.00
2006,02,01,07,07,43.50
2006,02,01,07,08,37.00
2006,02,01,07,09,29.00
2006,02,01,07,10,30.60
2006,02,01,07,11,43.50
2006,02,01,07,12,48.30
2006,02,01,07,13,43.50
2006,02,01,07,14,40.20
2006,02,01,07,15,29.00
2006,02,01,07,16,35.40
2006,02,01,07,17,37.00
2006,02,01,07,18,32.20
2006,02,01,07,19,25.70
2006,02,01,07,20,30.60
2006,02,01,07,21,30.60
2006,02,01,07,22,29.00
2006,02,01,07,23,35.40
2006,02,01,07,24,49.90
2006,02,01,07,25,43.50
2006,02,01,07,26,40.20
2006,02,01,07,27,61.20
2006,02,01,07,28,27.40
2006,02,01,07,29,25.70
2006,02,01,07,30,40.20
2006,02,01,07,31,30.60
2006,02,01,07,32,32.20
2006,02,01,07,33,27.40
2006,02,01,07,34,53.10
2006,02,01,07,35,30.60
2006,02,01,07,36,17.70
2006,02,01,07,37,25.70
2006,02,01,07,38,24.20
2006,02,01,07,39,22.50
2006,02,01,07,40,24.20
2006,02,01,07,41,24.20
2006,02,01,07,42,24.20
2006,02,01,07,43,19.30
2006,02,01,07,44,24.20
2006,02,01,07,45,24.20
2006,02,01,07,46,22.50
2006,02,01,07,47,25.70
2006,02,01,07,48,24.20
2006,02,01,07,49,35.40
2006,02,01,07,50,25.70
2006,02,01,07,51,19.30
2006,02,01,07,52,38.60
2006,02,01,07,53,32.20
2006,02,01,07,54,20.90
2006,02,01,07,55,19.30
2006,02,01,07,56,40.20
2006,02,01,07,57,35.40
2006,02,01,07,58,25.70
2006,02,01,07,59,24.20
2006,02,01,08,00,29.00
2006,02,01,08,01,27.40
2006,02,01,08,02,24.20
2006,02,01,08,03,24.20
2006,02,01,08,04,20.90
2006,02,01,08,05,14.50
2006,02,01,08,06,17.70
2006,02,01,08,07,4.80
2006,02,01,08,08,16.10
2006,02,01,08,09,12.90
2006,02,01,08,10,8.10
2006,02,01,08,11,12.90
2006,02,01,08,12,19.30
2006,02,01,08,13,22.50
2006,02,01,08,14,19.30
2006,02,01,08,15,17.70
2006,02,01,08,16,11.30
2006,02,01,08,17,8.10
2006,02,01,08,18,9.60
2006,02,01,08,19,9.60
2006,02,01,08,20,17.70
2006,02,01,08,21,17.70
2006,02,01,08,22,17.70
2006,02,01,08,23,20.90
2006,02,01,08,24,27.40
2006,02,01,08,25,32.20
2006,02,01,08,26,33.80
2006,02,01,08,27,32.20
2006,02,01,08,28,22.50
2006,02,01,08,29,22.50
2006,02,01,08,30,11.30
2006,02,01,08,31,19.30
2006,02,01,08,32,9.60
2006,02,01,08,33,9.60
2006,02,01,08,34,20.90
2006,02,01,08,35,19.30
2006,02,01,08,36,16.10
2006,02,01,08,37,19.30
2006,02,01,08,38,25.70
2006,02,01,08,39,19.30
2006,02,01,08,40,17.70
2006,02,01,08,41,19.30
2006,02,01,08,42,16.10
2006,02,01,08,43,20.90
2006,02,01,08,44,19.30
2006,02,01,08,45,25.70
2006,02,01,08,46,14.50
2006,02,01,08,47,11.30
2006,02,01,08,48,8.10
2006,02,01,08,49,24.20
2006,02,01,08,50,19.30
2006,02,01,08,51,19.30
2006,02,01,08,52,30.60
2006,02,01,08,53,25.70
2006,02,01,08,54,32.20
2006,02,01,08,55,25.70
2006,02,01,08,56,24.20
2006,02,01,08,57,25.70
2006,02,01,08,58,17.70
2006,02,01,08,59,19.30
2006,02,01,09,00,20.90
2006,02,01,09,01,19.30
2006,02,01,09,02,14.50
2006,02,01,09,03,12.90
2006,02,01,09,04,19.30
2006,02,01,09,05,14.50
2006,02,01,09,06,14.50
2006,02,01,09,07,6.40
2006,02,01,09,08,4.80
2006,02,01,09,09,16.10
2006,02,01,09,10,16.10
2006,02,01,09,11,16.10
2006,02,01,09,12,16.10
2006,02,01,09,13,20.90
2006,02,01,09,14,17.70
2006,02,01,09,15,20.90
2006,02,01,09,16,11.30
2006,02,01,09,17,14.50
2006,02,01,09,18,11.30
2006,02,01,09,19,9.60
2006,02,01,09,20,8.10
2006,02,01,09,21,16.10
2006,02,01,09,22,17.70
2006,02,01,09,23,14.50
2006,02,01,09,24,14.50
2006,02,01,09,25,22.50
2006,02,01,09,26,16.10
2006,02,01,09,27,11.30
2006,02,01,09,28,17.70
2006,02,01,09,29,24.20
2006,02,01,09,30,25.70
2006,02,01,09,31,20.90
2006,02,01,09,32,19.30
2006,02,01,09,33,19.30
2006,02,01,09,34,14.50
2006,02,01,09,35,17.70
2006,02,01,09,36,11.30
2006,02,01,09,37,9.60
2006,02,01,09,38,6.40
2006,02,01,09,39,9.60
2006,02,01,09,40,16.10
2006,02,01,09,41,6.40
2006,02,01,09,42,16.10
2006,02,01,09,43,14.50
2006,02,01,09,44,11.30
2006,02,01,09,45,17.70
2006,02,01,09,46,9.60
2006,02,01,09,47,6.40
2006,02,01,09,48,4.80
2006,02,01,09,49,8.10
2006,02,01,09,50,6.40
2006,02,01,09,51,8.10
2006,02,01,09,52,11.30
2006,02,01,09,53,16.10
2006,02,01,09,54,14.50
2006,02,01,09,55,16.10
2006,02,01,09,56,19.30
2006,02,01,09,57,19.30
2006,02,01,09,58,20.90
2006,02,01,09,59,20.90
2006,02,01,10,00,11.30
2006,02,01,10,01,24.20
2006,02,01,10,02,17.70
2006,02,01,10,03,16.10
2006,02,01,10,04,16.10
2006,02,01,10,05,17.70
2006,02,01,10,06,16.10
2006,02,01,10,07,12.90
2006,02,01,10,08,17.70
2006,02,01,10,09,22.50
2006,02,01,10,10,19.30
2006,02,01,10,11,22.50
2006,02,01,10,12,20.90
2006,02,01,10,13,25.70
2006,02,01,10,14,29.00
2006,02,01,10,15,25.70
2006,02,01,10,16,29.00
2006,02,01,10,17,27.40
2006,02,01,10,18,29.00
2006,02,01,10,19,22.50
2006,02,01,10,20,25.70
2006,02,01,10,21,29.00
2006,02,01,10,22,27.40
2006,02,01,10,23,29.00
2006,02,01,10,24,30.60
2006,02,01,10,25,20.90
2006,02,01,10,26,11.30
2006,02,01,10,27,19.30
2006,02,01,10,28,11.30
2006,02,01,10,29,11.30
2006,02,01,10,30,27.40
2006,02,01,10,31,17.70
2006,02,01,10,32,22.50
2006,02,01,10,33,20.90
2006,02,01,10,34,17.70
2006,02,01,10,35,22.50
2006,02,01,10,36,22.50
2006,02,01,10,37,17.70
2006,02,01,10,38,22.50
2006,02,01,10,39,14.50
2006,02,01,10,40,22.50
2006,02,01,10,41,29.00
2006,02,01,10,42,24.20
2006,02,01,10,43,24.20
2006,02,01,10,44,22.50
2006,02,01,10,45,12.90
2006,02,01,10,46,17.70
2006,02,01,10,47,27.40
2006,02,01,10,48,19.30
2006,02,01,10,49,24.20
2006,02,01,10,50,22.50
2006,02,01,10,51,27.40
2006,02,01,10,52,20.90
2006,02,01,10,53,9.60
2006,02,01,10,54,19.30
2006,02,01,10,55,20.90
2006,02,01,10,56,22.50
2006,02,01,10,57,20.90
2006,02,01,10,58,19.30
2006,02,01,10,59,20.90
2006,02,01,11,00,22.50
2006,02,01,11,01,22.50
2006,02,01,11,02,29.00
2006,02,01,11,03,25.70
2006,02,01,11,04,22.50
2006,02,01,11,05,16.10
2006,02,01,11,06,24.20
2006,02,01,11,07,14.50
2006,02,01,11,08,11.30
2006,02,01,11,09,22.50
2006,02,01,11,10,17.70
2006,02,01,11,11,24.20
2006,02,01,11,12,17.70
2006,02,01,11,13,29.00
2006,02,01,11,14,11.30
2006,02,01,11,15,8.10
2006,02,01,11,16,11.30
2006,02,01,11,17,27.40
2006,02,01,11,18,24.20
2006,02,01,11,19,20.90
2006,02,01,11,20,24.20
2006,02,01,11,21,20.90
2006,02,01,11,22,9.60
2006,02,01,11,23,14.50
2006,02,01,11,24,11.30
2006,02,01,11,25,19.30
2006,02,01,11,26,25.70
2006,02,01,11,27,32.20
2006,02,01,11,28,20.90
2006,02,01,11,29,20.90
2006,02,01,11,30,22.50
2006,02,01,11,31,11.30
2006,02,01,11,32,6.40
2006,02,01,11,33,22.50
2006,02,01,11,34,20.90
2006,02,01,11,35,19.30
2006,02,01,11,36,16.10
2006,02,01,11,37,16.10
2006,02,01,11,38,19.30
2006,02,01,11,39,24.20
2006,02,01,11,40,24.20
2006,02,01,11,41,9.60
2006,02,01,11,42,6.40
2006,02,01,11,43,9.60
2006,02,01,11,44,16.10
2006,02,01,11,45,19.30
2006,02,01,11,46,27.40
2006,02,01,11,47,20.90
2006,02,01,11,48,29.00
2006,02,01,11,49,16.10
2006,02,01,11,50,20.90
2006,02,01,11,51,30.60
2006,02,01,11,52,30.60
2006,02,01,11,53,27.40
2006,02,01,11,54,33.80
2006,02,01,11,55,22.50
2006,02,01,11,56,22.50
2006,02,01,11,57,16.10
2006,02,01,11,58,30.60
2006,02,01,11,59,24.20
2006,02,01,12,00,20.90
2006,02,01,12,01,19.30
2006,02,01,12,02,17.70
2006,02,01,12,03,12.90
2006,02,01,12,04,11.30
2006,02,01,12,05,22.50
2006,02,01,12,06,17.70
2006,02,01,12,07,17.70
2006,02,01,12,08,20.90
2006,02,01,12,09,17.70
2006,02,01,12,10,22.50
2006,02,01,12,11,17.70
2006,02,01,12,12,19.30
2006,02,01,12,13,17.70
2006,02,01,12,14,4.80
2006,02,01,12,15,20.90
2006,02,01,12,16,14.50
2006,02,01,12,17,20.90
2006,02,01,12,18,17.70
2006,02,01,12,19,20.90
2006,02,01,12,20,9.60
2006,02,01,12,21,9.60
2006,02,01,12,22,8.10
2006,02,01,12,23,1.60
2006,02,01,12,24,17.70
2006,02,01,12,25,8.10
2006,02,01,12,26,6.40
2006,02,01,12,27,6.40
2006,02,01,12,28,6.40
2006,02,01,12,29,14.50
2006,02,01,12,30,16.10
2006,02,01,12,31,16.10
2006,02,01,12,32,16.10
2006,02,01,12,33,6.40
2006,02,01,12,34,6.40
2006,02,01,12,35,11.30
2006,02,01,12,36,6.40
2006,02,01,12,37,8.10
2006,02,01,12,38,11.30
2006,02,01,12,39,4.80
2006,02,01,12,40,4.80
2006,02,01,12,41,4.80
2006,02,01,12,42,4.80
2006,02,01,12,43,9.60
2006,02,01,12,44,9.60
2006,02,01,12,45,9.60
2006,02,01,12,46,14.50
2006,02,01,12,47,3.20
2006,02,01,12,48,9.60
2006,02,01,12,49,6.40
2006,02,01,12,50,4.80
2006,02,01,12,51,1.60
2006,02,01,12,52,4.80
2006,02,01,12,53,8.10
2006,02,01,12,54,3.20
2006,02,01,12,55,4.80
2006,02,01,12,56,11.30
2006,02,01,12,57,8.10
2006,02,01,12,58,3.20
2006,02,01,12,59,4.80
2006,02,01,13,00,0.00
2006,02,01,13,01,1.60
2006,02,01,13,02,0.00
2006,02,01,13,03,1.60
2006,02,01,13,04,4.80
2006,02,01,13,05,4.80
2006,02,01,13,06,6.40
2006,02,01,13,07,4.80
2006,02,01,13,08,8.10
2006,02,01,13,09,6.40
2006,02,01,13,10,4.80
2006,02,01,13,11,3.20
2006,02,01,13,12,9.60
2006,02,01,13,13,6.40
2006,02,01,13,14,4.80
2006,02,01,13,15,3.20
2006,02,01,13,16,1.60
2006,02,01,13,17,1.60
2006,02,01,13,18,0.00
2006,02,01,13,19,0.00
2006,02,01,13,20,1.60
2006,02,01,13,21,1.60
2006,02,01,13,22,3.20
2006,02,01,13,23,3.20
2006,02,01,13,24,6.40
2006,02,01,13,25,3.20
2006,02,01,13,26,4.80
2006,02,01,13,27,3.20
2006,02,01,13,28,3.20
2006,02,01,13,29,3.20
2006,02,01,13,30,3.20
2006,02,01,13,31,4.80
2006,02,01,13,32,4.80
2006,02,01,13,33,3.20
2006,02,01,13,34,4.80
2006,02,01,13,35,3.20
2006,02,01,13,36,8.10
2006,02,01,13,37,4.80
2006,02,01,13,38,4.80
2006,02,01,13,39,8.10
2006,02,01,13,40,8.10
2006,02,01,13,41,4.80
2006,02,01,13,42,6.40
2006,02,01,13,43,4.80
2006,02,01,13,44,4.80
2006,02,01,13,45,8.10
2006,02,01,13,46,8.10
2006,02,01,13,47,8.10
2006,02,01,13,48,9.60
2006,02,01,13,49,4.80
2006,02,01,13,50,4.80
2006,02,01,13,51,4.80
2006,02,01,13,52,3.20
2006,02,01,13,53,3.20
2006,02,01,13,54,3.20
2006,02,01,13,55,6.40
2006,02,01,13,56,0.00
2006,02,01,13,57,1.60
2006,02,01,13,58,9.60
2006,02,01,13,59,6.40
2006,02,01,14,00,6.40
2006,02,01,14,01,6.40
2006,02,01,14,02,8.10
2006,02,01,14,03,4.80
2006,02,01,14,04,4.80
2006,02,01,14,05,4.80
2006,02,01,14,06,8.10
2006,02,01,14,07,6.40
2006,02,01,14,08,6.40
2006,02,01,14,09,6.40
2006,02,01,14,10,6.40
2006,02,01,14,11,1.60
2006,02,01,14,12,8.10
2006,02,01,14,13,11.30
2006,02,01,14,14,8.10
2006,02,01,14,15,8.10
2006,02,01,14,16,8.10
2006,02,01,14,17,8.10
2006,02,01,14,18,8.10
2006,02,01,14,19,4.80
2006,02,01,14,20,4.80
2006,02,01,14,21,6.40
2006,02,01,14,22,8.10
2006,02,01,14,23,3.20
2006,02,01,14,24,3.20
2006,02,01,14,25,1.60
2006,02,01,14,26,6.40
2006,02,01,14,27,8.10
2006,02,01,14,28,1.60
2006,02,01,14,29,0.00
2006,02,01,14,30,0.00
2006,02,01,14,31,4.80
2006,02,01,14,32,3.20
2006,02,01,14,33,4.80
2006,02,01,14,34,4.80
2006,02,01,14,35,6.40
2006,02,01,14,36,6.40
2006,02,01,14,37,8.10
2006,02,01,14,38,6.40
2006,02,01,14,39,8.10
2006,02,01,14,40,6.40
2006,02,01,14,41,6.40
2006,02,01,14,42,6.40
2006,02,01,14,43,3.20
2006,02,01,14,44,6.40
2006,02,01,14,45,4.80
2006,02,01,14,46,4.80
2006,02,01,14,47,4.80
2006,02,01,14,48,4.80
2006,02,01,14,49,6.40
2006,02,01,14,50,6.40
2006,02,01,14,51,8.10
2006,02,01,14,52,6.40
2006,02,01,14,53,9.60
2006,02,01,14,54,4.80
2006,02,01,14,55,4.80
2006,02,01,14,56,8.10
2006,02,01,14,57,8.10
2006,02,01,14,58,4.80
2006,02,01,14,59,4.80
2006,02,01,15,00,1.60
2006,02,01,15,01,3.20
2006,02,01,15,02,0.00
2006,02,01,15,03,3.20
2006,02,01,15,04,8.10
2006,02,01,15,05,6.40
2006,02,01,15,06,4.80
2006,02,01,15,07,3.20
2006,02,01,15,08,0.00
2006,02,01,15,09,0.00
2006,02,01,15,10,1.60
2006,02,01,15,11,6.40
2006,02,01,15,12,3.20
2006,02,01,15,13,4.80
2006,02,01,15,14,3.20
2006,02,01,15,15,3.20
2006,02,01,15,16,1.60
2006,02,01,15,17,6.40
2006,02,01,15,18,17.70
2006,02,01,15,19,16.10
2006,02,01,15,20,9.60
2006,02,01,15,21,4.80
2006,02,01,15,22,4.80
2006,02,01,15,23,4.80
2006,02,01,15,24,3.20
2006,02,01,15,25,4.80
2006,02,01,15,26,3.20
2006,02,01,15,27,4.80
2006,02,01,15,28,1.60
2006,02,01,15,29,4.80
2006,02,01,15,30,3.20
2006,02,01,15,31,0.00
2006,02,01,15,32,0.00
2006,02,01,15,33,1.60
2006,02,01,15,34,4.80
2006,02,01,15,35,3.20
2006,02,01,15,36,1.60
2006,02,01,15,37,1.60
2006,02,01,15,38,0.00
2006,02,01,15,39,1.60
2006,02,01,15,40,0.00
2006,02,01,15,41,1.60
2006,02,01,15,42,3.20
2006,02,01,15,43,4.80
2006,02,01,15,44,1.60
2006,02,01,15,45,1.60
2006,02,01,15,46,3.20
2006,02,01,15,47,1.60
2006,02,01,15,48,1.60
2006,02,01,15,49,1.60
2006,02,01,15,50,1.60
2006,02,01,15,51,0.00
2006,02,01,15,52,1.60
2006,02,01,15,53,3.20
2006,02,01,15,54,3.20
2006,02,01,15,55,3.20
2006,02,01,15,56,0.00
2006,02,01,15,57,0.00
2006,02,01,15,58,0.00
2006,02,01,15,59,0.00
2006,02,01,16,00,0.00
2006,02,01,16,01,1.60
2006,02,01,16,02,4.80
2006,02,01,16,03,0.00
2006,02,01,16,04,1.60
2006,02,01,16,05,4.80
2006,02,01,16,06,3.20
2006,02,01,16,07,4.80
2006,02,01,16,08,4.80
2006,02,01,16,09,1.60
2006,02,01,16,10,0.00
2006,02,01,16,11,6.40
2006,02,01,16,12,8.10
2006,02,01,16,13,4.80
2006,02,01,16,14,3.20
2006,02,01,16,15,3.20
2006,02,01,16,16,3.20
2006,02,01,16,17,3.20
2006,02,01,16,18,3.20
2006,02,01,16,19,1.60
2006,02,01,16,20,3.20
2006,02,01,16,21,3.20
2006,02,01,16,22,1.60
2006,02,01,16,23,1.60
2006,02,01,16,24,1.60
2006,02,01,16,25,0.00
2006,02,01,16,26,0.00
2006,02,01,16,27,3.20
2006,02,01,16,28,4.80
2006,02,01,16,29,3.20
2006,02,01,16,30,3.20
2006,02,01,16,31,3.20
2006,02,01,16,32,4.80
2006,02,01,16,33,4.80
2006,02,01,16,34,4.80
2006,02,01,16,35,4.80
2006,02,01,16,36,4.80
2006,02,01,16,37,4.80
2006,02,01,16,38,4.80
2006,02,01,16,39,4.80
2006,02,01,16,40,6.40
2006,02,01,16,41,6.40
2006,02,01,16,42,6.40
2006,02,01,16,43,4.80
2006,02,01,16,44,1.60
2006,02,01,16,45,3.20
2006,02,01,16,46,3.20
2006,02,01,16,47,4.80
2006,02,01,16,48,3.20
2006,02,01,16,49,6.40
2006,02,01,16,50,6.40
2006,02,01,16,51,6.40
2006,02,01,16,52,4.80
2006,02,01,16,53,6.40
2006,02,01,16,54,6.40
2006,02,01,16,55,6.40
2006,02,01,16,56,4.80
2006,02,01,16,57,6.40
2006,02,01,16,58,4.80
2006,02,01,16,59,6.40
2006,02,01,17,00,6.40
2006,02,01,17,01,8.10
2006,02,01,17,02,8.10
2006,02,01,17,03,4.80
2006,02,01,17,04,3.20
2006,02,01,17,05,4.80
2006,02,01,17,06,4.80
2006,02,01,17,07,1.60
2006,02,01,17,08,3.20
2006,02,01,17,09,6.40
2006,02,01,17,10,6.40
2006,02,01,17,11,4.80
2006,02,01,17,12,4.80
2006,02,01,17,13,1.60
2006,02,01,17,14,6.40
2006,02,01,17,15,4.80
2006,02,01,17,16,4.80
2006,02,01,17,17,4.80
2006,02,01,17,18,0.00
2006,02,01,17,19,0.00
2006,02,01,17,20,1.60
2006,02,01,17,21,3.20
2006,02,01,17,22,0.00
2006,02,01,17,23,1.60
2006,02,01,17,24,1.60
2006,02,01,17,25,3.20
2006,02,01,17,26,4.80
2006,02,01,17,27,1.60
2006,02,01,17,28,4.80
2006,02,01,17,29,4.80
2006,02,01,17,30,3.20
2006,02,01,17,31,3.20
2006,02,01,17,32,3.20
2006,02,01,17,33,3.20
2006,02,01,17,34,3.20